WMT2908 LIPH-LROP

Flight info

Callsign WMT2908
Flight time N/A
Altitude 35000
Route INBUT N503 LAREN Q561 AKADO L615 ROTAR DCT NAKIT DCT PUL DCT ENUPU DCT VELIP DCT TOSVI
Aircraft A321/M-L/S

Departure

Time 2026-04-27 19:56
Airport Treviso Airport (LIPH)

Arrival

Time N/A
Airport Bucharest Henri Coandă International Airport (LROP)
Time Latitude Longitude Altitude Speed Heading
2026-04-27 19:26 45.65368 12.20376 63 ft 0 kts 338°
2026-04-27 19:43 45.65352 12.20387 55 ft 4 kts 324°
2026-04-27 19:43 45.65331 12.20400 55 ft 4 kts 358°
2026-04-27 19:43 45.65309 12.20391 55 ft 4 kts 48°
2026-04-27 19:44 45.65297 12.20365 61 ft 0 kts 69°
2026-04-27 19:46 45.65299 12.20371 60 ft 1 kts 69°
2026-04-27 19:46 45.65304 12.20391 55 ft 3 kts 69°
2026-04-27 19:46 45.65310 12.20411 58 ft 4 kts 69°
2026-04-27 19:46 45.65314 12.20424 55 ft 0 kts 69°
2026-04-27 19:51 45.65314 12.20425 55 ft 0 kts 69°
2026-04-27 19:51 45.65316 12.20433 55 ft 2 kts 69°
2026-04-27 19:51 45.65322 12.20455 59 ft 3 kts 69°
2026-04-27 19:51 45.65331 12.20491 62 ft 5 kts 70°
2026-04-27 19:52 45.65344 12.20541 56 ft 6 kts 69°
2026-04-27 19:52 45.65362 12.20603 57 ft 7 kts 68°
2026-04-27 19:52 45.65378 12.20661 55 ft 2 kts 70°
2026-04-27 19:52 45.65381 12.20689 56 ft 3 kts 90°
2026-04-27 19:53 45.65375 12.20709 54 ft 0 kts 121°
2026-04-27 19:53 45.65373 12.20712 54 ft 1 kts 128°
2026-04-27 19:53 45.65364 12.20722 57 ft 2 kts 142°
2026-04-27 19:54 45.65347 12.20737 60 ft 4 kts 152°
2026-04-27 19:54 45.65330 12.20748 54 ft 1 kts 157°
2026-04-27 19:54 45.65317 12.20755 62 ft 3 kts 159°
2026-04-27 19:54 45.65294 12.20767 60 ft 4 kts 161°
2026-04-27 19:55 45.65262 12.20782 61 ft 5 kts 161°
2026-04-27 19:55 45.65228 12.20789 60 ft 5 kts 197°
2026-04-27 19:55 45.65209 12.20754 59 ft 5 kts 242°
2026-04-27 19:55 45.65197 12.20712 59 ft 6 kts 249°
2026-04-27 19:56 45.65131 12.20469 56 ft 61 kts 249°
2026-04-27 19:56 45.64897 12.19585 58 ft 127 kts 249°
2026-04-27 19:56 45.64523 12.18179 199 ft 164 kts 249°
2026-04-27 19:56 45.64131 12.16697 937 ft 158 kts 248°
2026-04-27 19:57 45.63678 12.15246 1523 ft 162 kts 238°
2026-04-27 19:57 45.62836 12.14158 1969 ft 172 kts 204°
2026-04-27 19:57 45.61598 12.13830 2178 ft 193 kts 186°
2026-04-27 19:57 45.60185 12.13584 2376 ft 216 kts 183°
2026-04-27 19:58 45.58668 12.14064 2521 ft 238 kts 148°
2026-04-27 19:58 45.57521 12.15866 2807 ft 257 kts 118°
2026-04-27 19:58 45.56660 12.18154 3446 ft 265 kts 117°
2026-04-27 19:58 45.55789 12.20493 4168 ft 269 kts 117°
2026-04-27 19:59 45.54906 12.22867 4904 ft 273 kts 118°
2026-04-27 19:59 45.54009 12.25270 5634 ft 276 kts 118°
2026-04-27 19:59 45.53097 12.27694 6380 ft 279 kts 118°
2026-04-27 19:59 45.52173 12.30139 7087 ft 281 kts 118°
2026-04-27 20:00 45.51235 12.32614 7781 ft 284 kts 118°
2026-04-27 20:00 45.50295 12.35095 8495 ft 286 kts 118°
2026-04-27 20:00 45.49343 12.37608 9211 ft 289 kts 118°
2026-04-27 20:00 45.48386 12.40139 9939 ft 291 kts 118°
2026-04-27 20:01 45.47411 12.42713 10399 ft 304 kts 118°
2026-04-27 20:01 45.46371 12.45452 10527 ft 326 kts 118°
2026-04-27 20:01 45.45252 12.48388 10658 ft 348 kts 118°
2026-04-27 20:01 45.44068 12.51498 10825 ft 366 kts 118°
2026-04-27 20:02 45.42842 12.54722 11285 ft 373 kts 118°
2026-04-27 20:02 45.41594 12.57995 11874 ft 378 kts 118°
2026-04-27 20:02 45.40328 12.61301 12460 ft 382 kts 118°
2026-04-27 20:02 45.39075 12.64568 13036 ft 387 kts 118°
2026-04-27 20:03 45.37751 12.68018 13637 ft 391 kts 118°
2026-04-27 20:03 45.36442 12.71435 14184 ft 396 kts 118°
2026-04-27 20:03 45.35118 12.74890 14717 ft 400 kts 118°
2026-04-27 20:03 45.33783 12.78368 15272 ft 404 kts 118°
2026-04-27 20:04 45.32428 12.81891 15805 ft 407 kts 118°
2026-04-27 20:04 45.31059 12.85436 16343 ft 411 kts 118°
2026-04-27 20:04 45.29676 12.89021 16875 ft 415 kts 118°
2026-04-27 20:04 45.28282 12.92630 17418 ft 419 kts 118°
2026-04-27 20:05 45.26869 12.96281 17955 ft 423 kts 118°
2026-04-27 20:05 45.25445 12.99946 18474 ft 427 kts 118°
2026-04-27 20:05 45.24005 13.03652 18931 ft 430 kts 118°
2026-04-27 20:05 45.22558 13.07378 19383 ft 433 kts 118°
2026-04-27 20:06 45.21100 13.11134 19833 ft 436 kts 118°
2026-04-27 20:06 45.19628 13.14919 20272 ft 439 kts 118°
2026-04-27 20:06 45.18149 13.18718 20710 ft 442 kts 118°
2026-04-27 20:06 45.16663 13.22527 21138 ft 445 kts 119°
2026-04-27 20:07 45.15152 13.26389 21567 ft 448 kts 119°
2026-04-27 20:07 45.13636 13.30256 21971 ft 451 kts 119°
2026-04-27 20:07 45.12109 13.34144 22367 ft 454 kts 119°
2026-04-27 20:07 45.10578 13.38046 22777 ft 456 kts 119°
2026-04-27 20:08 45.09032 13.41982 23170 ft 459 kts 119°
2026-04-27 20:08 45.07473 13.45943 23557 ft 462 kts 119°
2026-04-27 20:08 45.05902 13.49926 23905 ft 465 kts 119°
2026-04-27 20:08 45.04320 13.53929 24266 ft 467 kts 119°
2026-04-27 20:09 45.02733 13.57933 24618 ft 469 kts 119°
2026-04-27 20:09 45.01133 13.61961 24967 ft 470 kts 119°
2026-04-27 20:09 44.99624 13.65760 25295 ft 472 kts 119°
2026-04-27 20:09 44.98013 13.69818 25637 ft 474 kts 119°
2026-04-27 20:10 44.96396 13.73888 25965 ft 475 kts 119°
2026-04-27 20:10 44.94772 13.77968 26290 ft 477 kts 119°
2026-04-27 20:10 44.93140 13.82059 26635 ft 479 kts 119°
2026-04-27 20:10 44.91520 13.86164 26964 ft 481 kts 116°
2026-04-27 20:11 44.90212 13.90512 27281 ft 481 kts 107°
2026-04-27 20:11 44.89372 13.95080 27607 ft 482 kts 98°
2026-04-27 20:11 44.89016 13.99770 27929 ft 481 kts 90°
2026-04-27 20:11 44.88908 14.04479 28376 ft 480 kts 90°
2026-04-27 20:12 44.88788 14.09168 28828 ft 478 kts 90°
2026-04-27 20:12 44.88702 14.12275 29121 ft 477 kts 90°
2026-04-27 20:12 44.88515 14.18510 29719 ft 475 kts 90°
2026-04-27 20:12 44.88370 14.23166 30161 ft 474 kts 90°
2026-04-27 20:13 44.88226 14.27805 30532 ft 473 kts 90°
2026-04-27 20:13 44.88082 14.32436 30889 ft 472 kts 90°
2026-04-27 20:13 44.87940 14.37035 31252 ft 471 kts 90°
2026-04-27 20:13 44.87798 14.41647 31604 ft 470 kts 90°
2026-04-27 20:14 44.87657 14.46253 31960 ft 469 kts 90°
2026-04-27 20:14 44.87514 14.50853 32310 ft 468 kts 90°
2026-04-27 20:14 44.87367 14.55436 32661 ft 467 kts 90°
2026-04-27 20:14 44.87217 14.60003 32994 ft 467 kts 90°
2026-04-27 20:15 44.87065 14.64577 33349 ft 466 kts 90°
2026-04-27 20:15 44.86912 14.69123 33688 ft 465 kts 90°
2026-04-27 20:15 44.86758 14.73684 34021 ft 464 kts 90°
2026-04-27 20:15 44.86604 14.78216 34320 ft 464 kts 90°
2026-04-27 20:16 44.86451 14.82757 34593 ft 464 kts 90°
2026-04-27 20:16 44.86298 14.87303 34835 ft 464 kts 90°
2026-04-27 20:16 44.86144 14.91845 35050 ft 464 kts 90°
2026-04-27 20:16 44.85984 14.96385 35110 ft 465 kts 90°
2026-04-27 20:17 44.85652 15.05480 35117 ft 465 kts 90°
2026-04-27 20:17 44.85367 15.13052 35122 ft 465 kts 90°
2026-04-27 20:18 44.84960 15.23682 35129 ft 465 kts 90°
2026-04-27 20:18 44.84616 15.32772 35131 ft 465 kts 90°
2026-04-27 20:19 44.84274 15.41873 35144 ft 465 kts 89°
2026-04-27 20:19 44.84271 15.50959 35144 ft 463 kts 85°
2026-04-27 20:20 44.84514 15.60028 35145 ft 463 kts 84°
2026-04-27 20:20 44.84719 15.69099 35147 ft 464 kts 85°
2026-04-27 20:21 44.84830 15.78199 35145 ft 464 kts 86°
2026-04-27 20:21 44.84912 15.87289 35151 ft 464 kts 86°
2026-04-27 20:22 44.85001 15.96377 35150 ft 464 kts 86°
2026-04-27 20:22 44.85091 16.05469 35147 ft 464 kts 86°
2026-04-27 20:23 44.85180 16.14554 35152 ft 464 kts 86°
2026-04-27 20:23 44.85257 16.23652 35156 ft 464 kts 86°
2026-04-27 20:24 44.85309 16.31211 35152 ft 464 kts 86°
2026-04-27 20:24 44.85364 16.40310 35157 ft 464 kts 86°
2026-04-27 20:25 44.85425 16.49413 35150 ft 464 kts 86°
2026-04-27 20:25 44.85482 16.58510 35157 ft 464 kts 86°
2026-04-27 20:26 44.85518 16.67599 35157 ft 464 kts 86°
2026-04-27 20:26 44.85544 16.76706 35158 ft 464 kts 86°
2026-04-27 20:27 44.85570 16.85805 35162 ft 464 kts 86°
2026-04-27 20:27 44.85588 16.94895 35170 ft 464 kts 86°
2026-04-27 20:28 44.85600 17.04002 35173 ft 465 kts 86°
2026-04-27 20:28 44.85606 17.11589 35178 ft 465 kts 87°
2026-04-27 20:29 44.85608 17.22197 35181 ft 465 kts 87°
2026-04-27 20:29 44.85598 17.31329 35182 ft 465 kts 87°
2026-04-27 20:30 44.85580 17.40453 35181 ft 465 kts 87°
2026-04-27 20:30 44.85555 17.49574 35176 ft 466 kts 87°
2026-04-27 20:31 44.85520 17.58702 35169 ft 466 kts 87°
2026-04-27 20:31 44.85483 17.67828 35168 ft 466 kts 87°
2026-04-27 20:32 44.85439 17.76946 35165 ft 466 kts 87°
2026-04-27 20:32 44.85383 17.86092 35163 ft 466 kts 87°
2026-04-27 20:33 44.85317 17.95230 35166 ft 466 kts 87°
2026-04-27 20:33 44.85248 18.04359 35166 ft 466 kts 87°
2026-04-27 20:34 44.85175 18.13496 35164 ft 466 kts 87°
2026-04-27 20:34 44.85092 18.22630 35169 ft 466 kts 87°
2026-04-27 20:35 44.84998 18.31774 35168 ft 467 kts 88°
2026-04-27 20:35 44.84897 18.40915 35166 ft 467 kts 88°
2026-04-27 20:36 44.84795 18.50064 35169 ft 467 kts 88°
2026-04-27 20:36 44.84685 18.59205 35169 ft 467 kts 88°
2026-04-27 20:37 44.84567 18.68358 35167 ft 467 kts 88°
2026-04-27 20:37 44.84439 18.77503 35170 ft 467 kts 88°
2026-04-27 20:38 44.84304 18.86648 35167 ft 467 kts 88°
2026-04-27 20:38 44.84167 18.95795 35168 ft 467 kts 88°
2026-04-27 20:39 44.84015 19.04933 35169 ft 467 kts 88°
2026-04-27 20:39 44.83856 19.14080 35172 ft 467 kts 88°
2026-04-27 20:40 44.83696 19.23227 35169 ft 467 kts 88°
2026-04-27 20:40 44.83523 19.32362 35170 ft 467 kts 88°
2026-04-27 20:41 44.83339 19.41519 35173 ft 467 kts 88°
2026-04-27 20:41 44.83156 19.50669 35171 ft 467 kts 88°
2026-04-27 20:42 44.82970 19.59811 35172 ft 467 kts 88°
2026-04-27 20:42 44.82771 19.68952 35173 ft 467 kts 88°
2026-04-27 20:43 44.82557 19.78104 35172 ft 467 kts 88°
2026-04-27 20:43 44.82340 19.87240 35174 ft 467 kts 88°
2026-04-27 20:44 44.82120 19.96385 35179 ft 467 kts 88°
2026-04-27 20:44 44.81896 20.05467 35178 ft 467 kts 88°
2026-04-27 20:45 44.81662 20.14605 35185 ft 467 kts 88°
2026-04-27 20:45 44.81418 20.23749 35185 ft 467 kts 88°
2026-04-27 20:46 44.81160 20.32874 35185 ft 467 kts 88°
2026-04-27 20:46 44.80902 20.42014 35191 ft 467 kts 88°
2026-04-27 20:47 44.80637 20.51142 35180 ft 467 kts 88°
2026-04-27 20:47 44.80363 20.60270 35177 ft 466 kts 88°
2026-04-27 20:48 44.80135 20.67851 35174 ft 466 kts 88°
2026-04-27 20:48 44.79799 20.78511 35178 ft 466 kts 89°
2026-04-27 20:49 44.79507 20.87623 35174 ft 466 kts 89°
2026-04-27 20:49 44.79201 20.96744 35166 ft 466 kts 89°
2026-04-27 20:50 44.78890 21.05856 35167 ft 466 kts 89°
2026-04-27 20:50 44.78581 21.14961 35171 ft 466 kts 89°
2026-04-27 20:51 44.78261 21.24072 35178 ft 466 kts 89°
2026-04-27 20:51 44.77931 21.33177 35178 ft 466 kts 89°
2026-04-27 20:52 44.77590 21.42271 35181 ft 466 kts 89°
2026-04-27 20:52 44.77246 21.51373 35185 ft 466 kts 89°
2026-04-27 20:53 44.77065 21.60464 35188 ft 464 kts 85°
2026-04-27 20:53 44.77233 21.69527 35192 ft 463 kts 84°
2026-04-27 20:54 44.77495 21.83110 35192 ft 463 kts 85°
2026-04-27 20:55 44.77562 21.92190 35196 ft 464 kts 85°
2026-04-27 20:55 44.77597 22.01272 35195 ft 464 kts 85°
2026-04-27 20:56 44.77640 22.10353 35202 ft 464 kts 85°
2026-04-27 20:56 44.77681 22.19448 35203 ft 464 kts 86°
2026-04-27 20:57 44.77493 22.28551 35202 ft 466 kts 90°
2026-04-27 20:57 44.77002 22.37660 35201 ft 467 kts 91°
2026-04-27 20:58 44.76483 22.46784 35203 ft 467 kts 90°
2026-04-27 20:58 44.76028 22.55905 35204 ft 467 kts 90°
2026-04-27 20:59 44.75608 22.65038 35204 ft 468 kts 90°
2026-04-27 20:59 44.75172 22.74168 35202 ft 468 kts 90°